Location: Crescent
(42.8242°N, 73.7329°W)
Time: 00:32:13
(UTC+00:00)

Tiros 1 - Pass Details

Date: 23 February 2026
Orbit: 618 x 649 km, 48.4° (Epoch: 10 March)

Event Time Altitude Azimuth Distance (km) Brightness Sun altitude
Rises 13:17:54 0° 269° (W) 2,919 10.0 15.8°
Reaches altitude 10° 13:20:19 10° 275° (W) 2,006 9.2 16.2°
Maximum altitude 13:24:46 46° 349° (N) 843 7.7 16.9°
Drops below altitude 10° 13:29:11 10° 63° (ENE) 1,992 10.2 17.6°
Sets 13:31:34 0° 70° (ENE) 2,895 11.0 18.0°
